Maxwell AFB, AL

1:15 AM CDT on September 26, 2017 (GMT -0500)
Maxwell Air Force Base

Weather History for KMXF - August, 2013

Change the Weather History Date:

Saturday, August 24, 2013

  Actual Average Record
Temperature  
Mean Temperature 81 °F -  
Max Temperature 90 °F 90 °F 99 °F (2007)
Min Temperature 73 °F 71 °F 67 °F (2012)
Cooling Degree Days 16    
Growing Degree Days 31 (Base 50)    
Moisture  
Dew Point 74 °F    
Average Humidity 80    
Maximum Humidity 99    
Minimum Humidity 59    
Precipitation  
Precipitation 0.01 in - - ()
Sea Level Pressure  
Sea Level Pressure 30.12 in    
Wind  
Wind Speed 4 mph (ENE)    
Max Wind Speed 14 mph    
Max Gust Speed 20 mph    
Visibility 10 miles    
Events Rain    
Averages and records for this station are not official NWS values.
T = Trace of Precipitation, MM = Missing Value Source: NWS Daily Summary

Daily Weather History Graph

Daily Weather History Graph

Search for Another Location

Airport or City:

Trip Planner

Search our weather history database for the weather conditions in past years. The results will help you decide how hot, cold, wet, or windy it might be!

Date:

Astronomy

Aug. 24, 2013 Rise Set
Actual Time 6:15 AM CDT 7:19 PM CDT
Civil Twilight 5:50 AM CDT 7:44 PM CDT
Nautical Twilight 5:20 AM CDT 8:14 PM CDT
Astronomical Twilight 4:48 AM CDT 8:45 PM CDT
Moon 9:31 PM CDT (8/24) 9:57 AM CDT (8/24)
Length of Visible Light 13h 54m
Length of Day
13h 03m
Waning Gibbous, 84% of the Moon is Illuminated
Aug 24
Waning Gibbous
Aug 28
Last Quarter
Sep 5
New
Sep 12
First Quarter
Sep 19
Full

Hourly Weather History & Observations

Time (CDT) Temp. Heat Index Dew Point Humidity Pressure Visibility Wind Dir Wind Speed Gust Speed Precip Events Conditions
12:58 AM 75.4 °F - 73.6 °F 94% 30.04 in 10.0 mi Calm Calm - N/A   Mostly Cloudy
1:58 AM 75.4 °F - 74.1 °F 96% 30.06 in 10.0 mi NNE 1.2 mph - N/A   Clear
2:58 AM 74.1 °F - 73.2 °F 97% 30.04 in 10.0 mi North 3.5 mph - N/A   Clear
3:58 AM 73.9 °F - 73.4 °F 98% 30.04 in 10.0 mi Calm Calm - N/A   Clear
4:58 AM 73.4 °F - 73.0 °F 99% 30.06 in 10.0 mi NE 2.3 mph - N/A   Partly Cloudy
5:58 AM 73.8 °F - 73.6 °F 99% 30.09 in 10.0 mi NE 3.5 mph - N/A   Mostly Cloudy
6:58 AM 73.9 °F - 73.8 °F 99% 30.11 in 10.0 mi NNE 3.5 mph - N/A   Clear
7:58 AM 76.1 °F - 74.1 °F 94% 30.13 in 10.0 mi NE 4.6 mph - N/A   Partly Cloudy
8:58 AM 79.3 °F - 73.6 °F 82% 30.13 in 10.0 mi Variable 1.2 mph - N/A   Partly Cloudy
9:58 AM 82.2 °F 89.1 °F 75.2 °F 79% 30.14 in 10.0 mi Variable 2.3 mph - N/A   Clear
10:58 AM 84.4 °F 92.0 °F 74.7 °F 72% 30.14 in 10.0 mi Variable 2.3 mph - N/A   Clear
11:58 AM 85.5 °F 93.4 °F 74.3 °F 69% 30.14 in 10.0 mi NE 4.6 mph - N/A   Scattered Clouds
12:42 PM 86.0 °F 95.1 °F 75.2 °F 70% 30.12 in 10.0 mi ENE 12.7 mph - N/A Rain Light Rain
12:58 PM 82.4 °F 90.1 °F 76.1 °F 81% 30.13 in 8.0 mi NNE 5.8 mph - 0.01 in Rain Light Rain
1:12 PM 84.2 °F 92.3 °F 75.2 °F 74% 30.12 in 10.0 mi NNE 5.8 mph - N/A   Partly Cloudy
1:58 PM 86.9 °F 96.4 °F 75.0 °F 68% 30.12 in 10.0 mi NE 5.8 mph - 0.00 in   Scattered Clouds
2:58 PM 89.4 °F 97.8 °F 73.4 °F 59% 30.09 in 10.0 mi East 9.2 mph - N/A   Clear
3:58 PM 88.7 °F 96.7 °F 73.0 °F 60% 30.09 in 10.0 mi East 6.9 mph - N/A   Clear
4:58 PM 88.7 °F 96.2 °F 72.9 °F 59% 30.08 in 10.0 mi ENE 9.2 mph - N/A   Clear
5:58 PM 86.0 °F 92.6 °F 72.7 °F 64% 30.09 in 10.0 mi East 8.1 mph - N/A   Clear
6:58 PM 83.1 °F 90.7 °F 75.4 °F 77% 30.10 in 10.0 mi NE 5.8 mph - N/A   Clear
7:58 PM 81.7 °F 88.5 °F 75.7 °F 82% 30.12 in 10.0 mi NE 4.6 mph - N/A   Partly Cloudy
8:58 PM 80.2 °F 85.8 °F 75.9 °F 87% 30.14 in 10.0 mi ENE 5.8 mph - N/A   Clear
9:58 PM 80.8 °F 85.8 °F 73.6 °F 79% 30.17 in 10.0 mi East 9.2 mph - N/A   Clear
10:58 PM 79.2 °F - 72.3 °F 79% 30.19 in 10.0 mi East 13.8 mph - N/A   Mostly Cloudy
11:23 PM 78.8 °F - 71.6 °F 78% 30.18 in 10.0 mi East 11.5 mph 19.6 mph N/A   Mostly Cloudy
11:38 PM 78.8 °F - 71.6 °F 78% 30.19 in 10.0 mi East 10.4 mph - N/A   Overcast
11:43 PM 78.8 °F - 71.6 °F 78% 30.19 in 10.0 mi East 11.5 mph - N/A   Mostly Cloudy
11:58 PM 78.8 °F - 71.6 °F 78% 30.19 in 10.0 mi East 10.4 mph - N/A   Overcast